CW3175 Weather Reports


time (UTC)temp
F
wind
direction
speed
knots
gust
knots
rain 1hr
in
rain 24hr
in
rain mn
in
humidity
%
barometer
mb
20170425163048 73 167 5.2 11.3 0.00 0.00 0.00 41 1003.0
20170425162548 73 180 4.3 12.2 0.00 0.00 0.00 42 1003.0
20170425162048 72 153 4.3 12.2 0.00 0.00 0.00 42 1003.0
20170425161550 72 194 4.3 11.3 0.00 0.00 0.00 42 1003.0
20170425161050 72 171 2.6 8.7 0.00 0.00 0.00 42 1003.0
20170425160549 72 183 4.3 13.0 0.00 0.00 0.00 42 1003.0
20170425160050 72 182 5.2 13.0 0.00 0.00 0.00 40 1003.0
20170425155548 72 167 4.3 10.4 0.00 0.00 0.00 43 1003.0
20170425155045 71 223 3.5 10.4 0.00 0.00 0.00 43 1003.0
20170425154546 71 210 2.6 10.4 0.00 0.00 0.00 44 1003.0
20170425154045 70 182 4.3 11.3 0.00 0.00 0.00 47 1003.1
20170425153540 70 184 4.3 11.3 0.00 0.00 0.00 46 1003.1
20170425153040 70 181 3.5 9.6 0.00 0.00 0.00 49 1003.1
20170425152539 70 190 3.5 9.6 0.00 0.00 0.00 49 1003.1
20170425152039 69 125 3.5 8.7 0.00 0.00 0.00 50 1003.1
20170425151536 69 170 3.5 9.6 0.00 0.00 0.00 51 1003.1
20170425151038 69 157 3.5 9.6 0.00 0.00 0.00 52 1003.1
20170425150536 69 155 1.7 7.8 0.00 0.00 0.00 52 1003.1
20170425150038 68 186 2.6 7.8 0.00 0.00 0.00 53 1003.1
20170425145532 68 178 4.3 10.4 0.00 0.00 0.00 54 1003.3
20170425145031 67 190 3.5 11.3 0.00 0.00 0.00 55 1003.3
20170425144529 67 188 2.6 11.3 0.00 0.00 0.00 55 1003.3
20170425144026 67 166 2.6 9.6 0.00 0.00 0.00 56 1003.3
20170425143524 66 184 3.5 9.6 0.00 0.00 0.00 57 1003.3
20170425143025 66 171 4.3 9.6 0.00 0.00 0.00 58 1003.3
20170425142525 66 202 5.2 11.3 0.00 0.00 0.00 59 1003.5
20170425142025 65 177 3.5 11.3 0.00 0.00 0.00 59 1003.5
20170425141525 66 183 3.5 7.8 0.00 0.00 0.00 59 1003.5
20170425141025 65 148 4.3 10.4 0.00 0.00 0.00 61 1003.9
20170425140520 64 170 5.2 10.4 0.00 0.00 0.00 61 1003.9
20170425140020 64 159 4.3 10.4 0.00 0.00 0.00 62 1003.9
20170425135519 64 206 5.2 10.4 0.00 0.00 0.00 64 1003.9
20170425135013 63 188 6.1 13.9 0.00 0.00 0.00 64 1003.9
20170425134513 63 192 7.0 13.9 0.00 0.00 0.00 64 1003.9
20170425134012 63 159 7.8 12.2 0.00 0.00 0.00 65 1003.8
20170425133510 63 178 7.0 12.2 0.00 0.00 0.00 65 1003.8
20170425133012 63 155 6.1 11.3 0.00 0.00 0.00 65 1003.8
20170425132510 63 164 6.1 12.2 0.00 0.00 0.00 65 1004.0
20170425132009 63 171 6.1 12.2 0.00 0.00 0.00 66 1004.0
20170425131508 62 157 5.2 12.2 0.00 0.00 0.00 66 1004.0
20170425131009 63 172 4.3 12.2 0.00 0.00 0.00 66 1004.1
20170425130506 62 175 5.2 12.2 0.00 0.00 0.00 67 1004.1
20170425130007 62 160 6.1 12.2 0.00 0.00 0.00 68 1004.1
20170425125504 62 131 6.1 13.0 0.00 0.00 0.00 68 1003.9
20170425125004 61 182 6.1 13.0 0.00 0.00 0.00 69 1003.9
20170425124504 61 180 5.2 10.4 0.00 0.00 0.00 69 1003.9
20170425124004 60 157 5.2 10.4 0.00 0.00 0.00 70 1003.9
20170425123504 60 194 5.2 10.4 0.00 0.00 0.00 71 1003.9
20170425123005 60 163 5.2 11.3 0.00 0.00 0.00 72 1003.9
20170425122506 60 165 6.1 13.0 0.00 0.00 0.00 72 1003.9
20170425122004 59 165 5.2 13.0 0.00 0.00 0.00 72 1003.9
20170425121506 59 170 5.2 11.3 0.00 0.00 0.00 72 1003.9
20170425121003 59 154 5.2 11.3 0.00 0.00 0.00 72 1003.8
20170425120505 59 153 5.2 13.0 0.00 0.00 0.00 73 1003.8
20170425115950 59 175 4.3 13.0 0.00 0.00 0.00 73 1003.8
20170425115451 58 169 4.3 11.3 0.00 0.00 0.00 73 1003.8
20170425114946 58 192 4.3 11.3 0.00 0.00 0.00 73 1003.8
20170425114445 58 143 4.3 11.3 0.00 0.00 0.00 73 1003.8
20170425113944 58 182 6.1 11.3 0.00 0.00 0.00 73 1003.8
20170425113440 58 215 6.1 11.3 0.00 0.00 0.00 73 1003.8
20170425112934 58 161 5.2 11.3 0.00 0.00 0.00 73 1003.8
20170425112433 58 150 5.2 11.3 0.00 0.00 0.00 73 1003.9
20170425111936 58 128 4.3 11.3 0.00 0.00 0.00 72 1003.9
20170425111434 58 142 3.5 10.4 0.00 0.00 0.00 72 1003.9
20170425110932 58 163 4.3 8.7 0.00 0.00 0.00 72 1003.8
20170425110431 58 162 4.3 10.4 0.00 0.00 0.00 72 1003.8
20170425105929 58 161 4.3 10.4 0.00 0.00 0.00 72 1003.8
20170425105429 58 175 3.5 9.6 0.00 0.00 0.00 71 1003.7
20170425104928 58 157 3.5 10.4 0.00 0.00 0.00 71 1003.7
20170425104425 58 173 3.5 10.4 0.00 0.00 0.00 71 1003.7
20170425103927 58 163 3.5 9.6 0.00 0.00 0.00 70 1003.8
20170425103423 58 167 3.5 10.4 0.00 0.00 0.00 70 1003.8
20170425102910 58 155 2.6 8.7 0.00 0.00 0.00 70 1003.7
20170425102410 58 145 3.5 8.7 0.00 0.00 0.00 69 1003.7
20170425101905 58 177 3.5 10.4 0.00 0.00 0.00 69 1003.7
20170425101405 59 144 3.5 10.4 0.00 0.00 0.00 68 1003.7
20170425100906 59 144 2.6 9.6 0.00 0.00 0.00 68 1003.7
20170425100403 59 163 2.6 9.6 0.00 0.00 0.00 68 1003.7
20170425095901 59 171 2.6 8.7 0.00 0.00 0.00 67 1003.7
20170425095403 59 171 2.6 8.7 0.00 0.00 0.00 67 1003.7
20170425094903 59 162 3.5 8.7 0.00 0.00 0.00 66 1003.7
20170425094400 59 167 3.5 8.7 0.00 0.00 0.00 66 1003.9
20170425093853 59 148 2.6 7.8 0.00 0.00 0.00 65 1003.9
20170425093354 59 146 1.7 6.1 0.00 0.00 0.00 65 1003.9
20170425092853 59 153 2.6 8.7 0.00 0.00 0.00 64 1003.9
20170425092354 59 182 2.6 8.7 0.00 0.00 0.00 64 1003.9
20170425091847 59 140 2.6 9.6 0.00 0.00 0.00 64 1003.9
20170425091352 59 165 2.6 9.6 0.00 0.00 0.00 64 1004.0
20170425090849 59 159 3.5 9.6 0.00 0.00 0.00 63 1004.0
20170425090348 59 182 2.6 9.6 0.00 0.00 0.00 63 1004.0
20170425085848 59 167 0.9 4.3 0.00 0.00 0.00 62 1003.9
20170425085344 59 163 0.9 5.2 0.00 0.00 0.00 61 1003.9
20170425084844 59 163 0.9 6.1 0.00 0.00 0.00 61 1003.9
20170425084343 59 154 0.9 6.1 0.00 0.00 0.00 60 1004.0
20170425083842 59 181 0.9 5.2 0.00 0.00 0.00 60 1004.0
20170425083338 59 167 1.7 6.1 0.00 0.00 0.00 59 1004.0
20170425082834 60 153 2.6 9.6 0.00 0.00 0.00 59 1004.0
20170425082325 60 197 1.7 9.6 0.00 0.00 0.00 59 1004.0
20170425081826 60 169 0.9 8.7 0.00 0.00 0.00 58 1004.0
20170425081328 60 161 0.9 8.7 0.00 0.00 0.00 58 1004.0
20170425080810 60 144 0.9 5.2 0.00 0.00 0.00 58 1004.0
20170425080308 60 157 0.9 5.2 0.00 0.00 0.00 57 1004.0
20170425075750 60 150 0.9 7.8 0.00 0.00 0.00 57 1004.2
20170425075251 60 161 1.7 7.8 0.00 0.00 0.00 57 1004.2
20170425074728 60 169 0.9 6.1 0.00 0.00 0.00 57 1004.2
20170425074228 60 151 1.7 6.1 0.00 0.00 0.00 57 1004.3
20170425073725 60 146 1.7 7.8 0.00 0.00 0.00 56 1004.3
20170425073225 59 121 1.7 7.8 0.00 0.00 0.00 56 1004.3
20170425072722 59 150 0.0 3.5 0.00 0.00 0.00 56 1004.2
20170425072224 59 163 0.9 5.2 0.00 0.00 0.00 55 1004.2
20170425071715 59 163 1.7 9.6 0.00 0.00 0.00 54 1004.2
20170425071148 60 127 1.7 10.4 0.00 0.00 0.00 54 1004.3
20170425070648 60 132 2.6 11.3 0.00 0.00 0.00 52 1004.3
20170425070140 60 142 2.6 11.3 0.00 0.00 0.00 52 1004.3
20170425065639 60 172 2.6 8.7 0.00 0.00 0.00 51 1004.3
20170425065137 60 148 2.6 10.4 0.00 0.00 0.00 51 1004.3
20170425064636 60 144 2.6 10.4 0.00 0.00 0.00 50 1004.3
20170425064137 60 159 2.6 8.7 0.00 0.00 0.00 49 1004.7
20170425063634 60 137 2.6 7.8 0.00 0.00 0.00 49 1004.7
20170425063126 60 160 2.6 8.7 0.00 0.00 0.00 48 1004.7
20170425062624 60 139 2.6 8.7 0.00 0.00 0.00 47 1004.8
20170425062124 60 170 1.7 8.7 0.00 0.00 0.00 46 1004.8
20170425061623 60 137 1.7 8.7 0.00 0.00 0.00 45 1004.8
20170425061124 60 118 1.7 9.6 0.00 0.00 0.00 45 1004.8
20170425060624 60 141 1.7 9.6 0.00 0.00 0.00 44 1004.8
20170425060124 61 145 1.7 7.8 0.00 0.00 0.00 44 1004.8
20170425055620 61 134 1.7 7.8 0.00 0.00 0.00 44 1004.9
20170425055118 61 114 3.5 11.3 0.00 0.00 0.00 43 1004.9
20170425054617 61 119 3.5 11.3 0.00 0.00 0.00 42 1004.9
20170425054110 61 97 2.6 9.6 0.00 0.00 0.00 42 1005.0
20170425053610 61 152 1.7 8.7 0.00 0.00 0.00 42 1005.0
20170425053112 61 133 1.7 8.7 0.00 0.00 0.00 42 1005.0
20170425052604 61 161 2.6 8.7 0.00 0.00 0.00 42 1005.2
20170425052048 61 116 1.7 8.7 0.00 0.00 0.00 41 1005.2
20170425051548 61 148 0.9 7.8 0.00 0.00 0.00 42 1005.2
20170425051046 61 136 0.9 5.2 0.00 0.00 0.00 42 1005.1
20170425050546 61 113 0.0 3.5 0.00 0.00 0.00 42 1005.1
20170425050039 62 136 0.9 5.2 0.00 0.00 0.00 40 1005.1
20170425045527 62 136 0.9 5.2 0.00 0.00 0.00 40 1005.2
20170425045026 62 125 0.9 6.1 0.00 0.00 0.00 40 1005.2
20170425044523 62 120 1.7 7.8 0.00 0.00 0.00 40 1005.2
20170425044026 61 126 0.9 7.8 0.00 0.00 0.00 41 1005.4
20170425043522 61 148 0.0 4.3 0.00 0.00 0.00 42 1005.4
20170425043021 61 105 0.0 4.3 0.00 0.00 0.00 43 1005.4
20170425042534 61 117 0.9 5.2 0.00 0.00 0.00 43 1005.5
20170425042029 61 117 0.9 5.2 0.00 0.00 0.00 42 1005.5
20170425041500 61 125 0.9 5.2 0.00 0.00 0.00 42 1005.5
20170425040953 62 120 0.9 5.2 0.00 0.00 0.00 41 1005.5
20170425040511 62 103 0.9 5.2 0.00 0.00 0.00 40 1005.5
20170425035945 62 98 0.9 6.1 0.00 0.00 0.00 40 1005.5
20170425035438 62 125 0.9 6.1 0.00 0.00 0.00 40 1005.5
20170425034927 62 113 0.9 7.0 0.00 0.00 0.00 40 1005.5
20170425034429 62 134 0.9 7.0 0.00 0.00 0.00 39 1005.5
20170425033915 62 118 0.9 7.0 0.00 0.00 0.00 39 1005.5
20170425033412 62 101 1.7 6.1 0.00 0.00 0.00 39 1005.5
20170425032912 62 95 0.9 6.1 0.00 0.00 0.00 38 1005.5
20170425032412 62 117 1.7 8.7 0.00 0.00 0.00 38 1005.5
20170425031905 62 96 1.7 11.3 0.00 0.00 0.00 37 1005.5
20170425031407 63 158 1.7 11.3 0.00 0.00 0.00 37 1005.6
20170425030907 62 103 1.7 7.8 0.00 0.00 0.00 37 1005.6
20170425030407 62 126 0.9 7.8 0.00 0.00 0.00 38 1005.6
20170425025905 62 146 1.7 9.6 0.00 0.00 0.00 39 1005.9
20170425025408 62 82 1.7 9.6 0.00 0.00 0.00 39 1005.9
20170425024901 62 159 1.7 5.2 0.00 0.00 0.00 40 1005.9
20170425024401 61 117 1.7 9.6 0.00 0.00 0.00 42 1005.9
20170425023857 61 126 1.7 9.6 0.00 0.00 0.00 42 1005.9
20170425023333 60 106 1.7 6.1 0.00 0.00 0.00 44 1005.9
20170425022832 60 104 1.7 4.3 0.00 0.00 0.00 46 1005.8
20170425022332 59 109 0.9 4.3 0.00 0.00 0.00 47 1005.8
20170425021833 58 121 0.9 3.5 0.00 0.00 0.00 49 1005.8
20170425021327 58 106 0.9 4.3 0.00 0.00 0.00 49 1005.9
20170425020811 58 104 0.9 6.1 0.00 0.00 0.00 50 1005.9
20170425020303 57 92 0.9 6.1 0.00 0.00 0.00 51 1005.9
20170425014759 56 123 0.0 6.1 0.00 0.00 0.00 52 1006.1
20170425014300 55 109 0.0 0.9 0.00 0.00 0.00 52 1006.0
20170425013753 55 109 0.0 1.7 0.00 0.00 0.00 51 1006.0
20170425012651 56 114 0.9 4.3 0.00 0.00 0.00 49 1005.8
20170425012151 56 98 0.9 4.3 0.00 0.00 0.00 48 1005.8
20170425011627 56 105 0.0 3.5 0.00 0.00 0.00 47 1005.8
20170425011127 56 104 0.0 3.5 0.00 0.00 0.00 47 1006.2
20170425010611 56 85 0.0 2.6 0.00 0.00 0.00 46 1006.2
20170425010115 56 96 0.0 2.6 0.00 0.00 0.00 45 1006.2
20170425005611 56 87 0.0 3.5 0.00 0.00 0.00 45 1006.4
20170425005051 57 100 0.9 4.3 0.00 0.00 0.00 44 1006.4
20170425004551 57 56 0.9 4.3 0.00 0.00 0.00 44 1006.4
20170425004049 57 96 0.9 6.1 0.00 0.00 0.00 43 1006.6
20170425003551 57 98 0.9 6.1 0.00 0.00 0.00 42 1006.6
20170425003032 58 102 0.9 5.2 0.00 0.00 0.00 41 1006.6
20170425002529 58 89 0.9 5.2 0.00 0.00 0.00 41 1006.7
20170425002014 58 42 1.7 8.7 0.00 0.00 0.00 40 1006.7
20170425001455 59 44 0.9 8.7 0.00 0.00 0.00 39 1006.7
20170425001001 59 83 0.9 6.1 0.00 0.00 0.00 38 1006.7
20170425000429 59 46 0.9 6.1 0.00 0.00 0.00 37 1006.7
20170424235929 60 42 0.9 7.0 0.00 0.00 0.00 36 1006.7
20170424235415 60 52 0.9 7.0 0.00 0.00 0.00 34 1006.8
20170424234914 61 53 0.9 5.2 0.00 0.00 0.00 33 1006.8
20170424234412 62 57 0.9 6.1 0.00 0.00 0.00 31 1007.2
20170424233911 62 46 0.9 6.1 0.00 0.00 0.00 30 1007.2
20170424233405 62 46 0.9 5.2 0.00 0.00 0.00 29 1007.2
20170424232904 62 13 0.9 4.3 0.00 0.00 0.00 29 1007.2
20170424232404 63 61 0.9 5.2 0.00 0.00 0.00 28 1007.2
20170424231905 63 44 0.9 5.2 0.00 0.00 0.00 28 1007.2
20170424231352 64 63 0.9 5.2 0.00 0.00 0.00 28 1007.3
20170424230851 64 55 0.9 5.2 0.00 0.00 0.00 28 1007.3
20170424230353 64 99 0.9 5.2 0.00 0.00 0.00 27 1007.3
20170424225837 64 75 0.9 5.2 0.00 0.00 0.00 28 1007.4
20170424225337 64 106 0.9 4.3 0.00 0.00 0.00 27 1007.4
20170424224839 64 92 0.9 6.1 0.00 0.00 0.00 27 1007.4
20170424224336 64 23 0.9 6.1 0.00 0.00 0.00 27 1007.8
20170424223837 64 51 0.9 5.2 0.00 0.00 0.00 28 1007.8
20170424223336 64 44 0.9 5.2 0.00 0.00 0.00 27 1007.8
20170424222834 65 77 0.9 5.2 0.00 0.00 0.00 28 1007.8
20170424222333 65 102 0.9 5.2 0.00 0.00 0.00 28 1007.8
20170424221835 65 76 0.9 5.2 0.00 0.00 0.00 28 1007.8
20170424221316 65 82 0.9 6.1 0.00 0.00 0.00 28 1007.9
20170424220812 66 68 0.9 6.1 0.00 0.00 0.00 27 1007.9
20170424220307 66 103 1.7 7.0 0.00 0.00 0.00 27 1007.9
20170424215802 66 49 0.9 7.0 0.00 0.00 0.00 26 1008.2
20170424215302 67 47 0.9 6.1 0.00 0.00 0.00 25 1008.2
20170424214751 66 58 1.7 6.1 0.00 0.00 0.00 25 1008.2
20170424214246 67 49 1.7 5.2 0.00 0.00 0.00 25 1008.4
20170424213740 67 88 1.7 7.8 0.00 0.00 0.00 25 1008.4
20170424213240 67 46 1.7 7.8 0.00 0.00 0.00 25 1008.4
20170424212740 67 82 1.7 6.1 0.00 0.00 0.00 25 1008.4
20170424212240 67 89 0.9 6.1 0.00 0.00 0.00 25 1008.4
20170424211725 66 88 1.7 6.1 0.00 0.00 0.00 26 1008.4
20170424211218 66 72 2.6 7.8 0.00 0.00 0.00 26 1008.6
20170424210718 66 53 2.6 8.7 0.00 0.00 0.00 26 1008.6
20170424210219 66 88 2.6 8.7 0.00 0.00 0.00 27 1008.6
20170424205715 67 34 0.9 7.0 0.00 0.00 0.00 25 1008.9
20170424205217 67 58 0.9 6.1 0.00 0.00 0.00 26 1008.9
20170424204714 66 46 0.9 6.1 0.00 0.00 0.00 27 1008.9
20170424204207 66 104 1.7 5.2 0.00 0.00 0.00 27 1009.2
20170424203708 65 94 1.7 7.8 0.00 0.00 0.00 27 1009.2
20170424203202 66 81 1.7 7.8 0.00 0.00 0.00 27 1009.2
20170424202703 66 123 1.7 6.1 0.00 0.00 0.00 27 1009.5
20170424202203 66 115 1.7 6.1 0.00 0.00 0.00 27 1009.5
20170424201703 67 112 0.9 6.1 0.00 0.00 0.00 27 1009.5
20170424201203 66 124 1.7 6.1 0.00 0.00 0.00 28 1009.8
20170424200703 66 34 1.7 6.1 0.00 0.00 0.00 27 1009.8
20170424200159 67 112 1.7 6.1 0.00 0.00 0.00 27 1009.8
20170424195700 67 55 2.6 6.1 0.00 0.00 0.00 27 1010.1
20170424195157 67 83 2.6 8.7 0.00 0.00 0.00 26 1010.1
20170424194657 68 74 1.7 8.7 0.00 0.00 0.00 25 1010.1
20170424194154 68 46 1.7 7.0 0.00 0.00 0.00 25 1010.4
20170424193652 68 49 1.7 7.0 0.00 0.00 0.00 24 1010.4
20170424193146 68 64 1.7 5.2 0.00 0.00 0.00 24 1010.4
20170424192646 68 87 1.7 6.1 0.00 0.00 0.00 25 1010.6
20170424192149 68 36 1.7 6.1 0.00 0.00 0.00 24 1010.6
20170424191635 68 80 1.7 4.3 0.00 0.00 0.00 24 1010.6
20170424191134 67 95 1.7 4.3 0.00 0.00 0.00 25 1011.0
20170424190633 67 100 1.7 5.2 0.00 0.00 0.00 25 1011.0
20170424190134 67 95 1.7 5.2 0.00 0.00 0.00 24 1011.0
20170424185628 67 65 0.9 6.1 0.00 0.00 0.00 25 1011.4
20170424185124 67 76 0.9 6.1 0.00 0.00 0.00 24 1011.4
20170424184620 66 99 1.7 5.2 0.00 0.00 0.00 26 1011.4
20170424184120 66 111 0.9 7.8 0.00 0.00 0.00 26 1011.6
20170424183618 66 94 0.9 7.8 0.00 0.00 0.00 27 1011.6
20170424183119 66 88 1.7 6.1 0.00 0.00 0.00 26 1011.6
20170424182618 65 100 1.7 5.2 0.00 0.00 0.00 27 1011.9
20170424182118 65 64 0.9 5.2 0.00 0.00 0.00 28 1011.9
20170424181620 64 68 0.9 6.1 0.00 0.00 0.00 30 1011.9
20170424181119 64 70 0.9 6.1 0.00 0.00 0.00 31 1012.1
20170424180620 64 90 0.9 4.3 0.00 0.00 0.00 34 1012.1
20170424180120 64 98 0.9 4.3 0.00 0.00 0.00 36 1012.1
20170424175539 63 94 0.9 3.5 0.00 0.00 0.00 36 1012.1
20170424175040 63 90 0.9 3.5 0.00 0.00 0.00 39 1012.1
20170424174539 62 88 0.9 4.3 0.00 0.00 0.00 41 1012.1
20170424174031 62 89 1.7 5.2 0.00 0.00 0.00 40 1012.4
20170424173529 62 74 1.7 5.2 0.00 0.00 0.00 40 1012.4
20170424173029 63 105 0.9 5.2 0.00 0.00 0.00 38 1012.4
20170424172529 63 101 0.0 3.5 0.00 0.00 0.00 41 1012.7
20170424172024 63 105 0.9 3.5 0.00 0.00 0.00 43 1012.7
20170424171524 62 101 0.9 3.5 0.00 0.00 0.00 44 1012.7
20170424171016 63 105 0.0 3.5 0.00 0.00 0.00 44 1012.9
20170424170516 62 107 0.0 2.6 0.00 0.00 0.00 45 1012.9
20170424170016 62 107 0.0 3.5 0.00 0.00 0.00 45 1012.9
20170424165508 62 112 0.0 3.5 0.00 0.00 0.00 46 1013.1
20170424165008 62 113 0.0 2.6 0.00 0.00 0.00 46 1013.1
20170424164502 62 113 0.0 3.5 0.00 0.00 0.00 45 1013.1
20170424163957 62 114 0.0 3.5 0.00 0.00 0.00 42 1013.4
20170424163453 61 98 0.0 2.6 0.00 0.00 0.00 48 1013.4